Wind_Speed
18 17 16 17 17 16 18 18 16 15 12 12 13 10 8 6 6 8 10 11 10 11 11 11 11 11 11 11 11 11 11 11 11
22 20 18 16 18 17 18 18 16 15 13 13 12 10 6 4 7 9 10 10 9 9 9 10 10 10 10 10 10 10 10 10 10
22 21 20 19 18 18 18 18 16 13 12 13 12 8 6 7 7 8 9 9 8 8 8 8 8 8 8 8 9 9 9 9 9
22 23 20 18 18 17 18 18 17 14 12 12 12 9 7 7 7 7 7 7 6 6 6 6 7 7 7 7 7 7 7 7 7
23 23 21 18 19 19 19 20 18 15 13 11 11 9 8 7 6 7 7 6 5 5 5 5 4 5 6 6 5 5 6 6 7
23 23 21 19 19 19 19 19 19 16 13 12 10 11 9 8 6 6 6 6 5 4 3 3 3 3 4 4 4 4 4 5 7
24 22 22 20 20 19 19 18 18 18 16 13 11 11 9 9 7 6 5 6 6 4 3 2 1 1 1 2 3 3 3 5 6
25 25 23 23 22 21 20 19 19 18 17 16 14 12 10 9 10 8 7 6 8 6 5 4 3 2 3 2 2 2 2 4 6
29 29 27 27 27 25 23 21 20 19 17 16 16 14 12 11 10 10 9 8 8 9 7 6 5 4 5 6 5 5 3 3 4
30 32 31 30 29 26 25 23 22 21 19 17 16 16 14 13 12 13 11 10 8 9 9 7 7 5 5 5 7 7 5 3 2
33 35 35 34 31 29 26 26 23 21 19 18 17 17 16 15 14 15 14 12 11 9 8 7 7 7 7 7 8 8 8 6 4
36 34 35 38 35 32 28 25 23 21 21 21 19 18 18 18 16 16 16 17 16 14 11 10 10 10 11 11 10 10 10 8 6
35 37 32 38 39 34 30 28 26 24 23 22 22 20 20 19 18 19 19 19 19 19 16 14 14 13 14 13 10 10 11 9 7
35 34 32 32 36 34 32 29 29 26 24 24 22 21 22 21 20 21 20 20 21 20 20 18 17 14 14 14 11 12 13 11 8
40 34 32 31 28 32 30 32 30 29 26 24 23 21 21 22 23 22 21 21 21 21 20 18 16 14 12 12 11 14 13 9 7
37 35 35 29 33 36 36 33 32 33 27 18 23 23 22 22 23 22 23 21 22 23 19 17 14 13 9 8 11 15 10 9 7
38 40 34 31 30 32 31 34 27 29 29 13 3 2 9 23 23 21 21 23 21 22 19 17 15 11 8 9 13 12 11 9 6
41 40 38 35 35 30 35 36 33 24 26 28 9 2 5 1 11 19 18 19 22 22 20 18 16 14 13 14 16 14 11 7 7
38 40 39 37 34 33 38 39 37 30 23 25 28 11 4 3 1 6 16 20 22 21 21 19 18 16 15 16 16 13 11 8 6
40 40 39 34 36 40 41 37 37 37 27 26 20 22 11 6 2 2 2 15 21 22 23 21 21 19 18 17 14 13 11 9 7
Wind_Direction
164 158 163 159 154 154 154 150 144 139 131 134 148 140 130 124 120 111 106 100 101 100 95 88 83 81 79 76 74 71 69 69 68
167 165 164 166 164 167 159 156 151 145 137 136 146 146 145 140 129 121 114 108 107 100 97 92 86 82 79 79 77 74 72 70 66
177 172 171 175 181 171 166 163 159 153 147 150 151 147 143 141 134 126 121 118 115 109 101 96 92 86 82 79 76 74 71 71 68
183 178 183 185 182 176 172 172 169 163 156 156 160 152 141 143 140 136 130 123 124 113 106 97 92 87 83 78 74 70 68 65 60
191 186 188 191 184 182 182 179 177 174 169 163 166 169 162 156 150 150 146 143 149 134 119 102 85 84 80 71 65 61 59 56 49
198 193 193 192 190 186 186 184 182 181 182 180 179 185 185 180 176 170 165 167 174 162 149 131 109 94 89 60 50 47 49 44 37
204 201 197 196 194 193 189 189 187 189 192 192 189 188 197 202 203 203 196 190 199 201 193 188 165 98 77 52 28 28 21 21 19
208 201 201 199 198 196 198 196 197 196 198 204 201 204 213 221 221 222 222 214 213 224 233 235 247 285 288 304 313 317 345 349 354
206 205 204 205 200 201 203 206 205 204 203 207 213 215 219 224 226 223 224 224 218 229 242 247 257 263 293 291 282 284 288 308 333
212 209 207 208 206 208 211 211 212 213 211 210 215 222 224 230 230 228 226 227 226 229 239 246 254 266 273 284 281 266 261 253 293
214 208 210 213 212 214 216 212 211 214 219 219 219 220 229 236 240 234 229 230 229 231 238 242 249 268 282 283 284 252 233 237 233
215 209 209 214 214 217 218 218 219 220 226 231 228 230 232 237 242 237 237 236 234 232 229 227 244 259 272 276 279 246 226 226 223
220 212 211 214 216 215 219 220 222 224 230 237 234 236 238 240 243 241 246 246 243 237 236 238 245 255 266 272 261 243 221 219 220
223 213 209 213 214 215 217 225 226 229 233 235 236 241 238 240 245 245 248 246 245 242 241 241 251 251 266 272 252 223 210 214 217
225 220 211 209 210 216 220 226 232 237 238 237 244 242 241 244 247 249 249 251 248 237 235 244 240 255 264 265 242 194 205 212 218
227 224 220 214 217 219 223 230 234 240 234 241 250 249 247 244 245 246 246 247 245 233 233 228 241 252 248 248 203 191 195 208 217
220 217 212 209 222 218 222 228 229 239 232 218 220 256 249 244 244 243 244 238 231 228 222 226 234 232 229 206 197 191 192 212 234
218 213 208 213 218 216 227 228 224 228 226 218 199 166 222 200 217 231 232 225 222 220 221 225 225 223 215 206 207 212 223 239 259
215 211 205 206 217 216 224 230 227 220 217 219 223 225 190 191 225 229 223 219 221 223 223 224 225 220 217 212 213 218 237 237 242
213 205 197 201 219 228 225 224 223 227 221 215 213 221 210 206 144 216 248 224 228 226 225 227 225 222 218 215 217 222 228 225 212
Height
819 821 824 825 826 827 828 829 830 832 833 835 837 839 840 840 839 839 839 840 841 840 840 840 840 840 839 839 838 838 837 836 835
819 821 823 826 827 827 829 829 831 832 833 835 837 839 839 840 840 840 841 841 842 842 841 841 841 841 840 839 839 839 838 838 837
818 820 823 825 827 827 828 830 831 833 834 835 837 839 840 840 841 842 842 843 843 843 843 842 842 841 841 840 840 840 839 839 838
818 820 822 823 826 828 829 830 832 833 834 836 837 838 839 840 841 841 842 843 844 843 843 843 842 842 842 841 841 841 840 840 839
817 818 821 823 824 827 829 830 832 833 834 836 837 838 839 840 841 841 842 842 843 843 844 844 844 843 843 843 842 842 842 841 840
816 818 820 821 824 826 829 830 831 832 834 835 837 838 839 839 840 841 841 842 843 843 844 843 843 843 843 843 843 843 843 842 842
815 817 818 820 821 825 827 830 831 831 833 835 836 837 838 839 840 841 841 842 843 843 843 844 844 844 844 843 843 843 844 844 843
814 816 818 818 820 822 826 828 829 830 831 833 835 836 838 838 839 840 841 841 842 843 843 844 844 844 845 844 843 843 843 844 843
809 813 815 816 817 819 822 825 828 829 829 831 833 835 836 837 837 838 839 840 840 841 842 842 843 843 843 844 843 842 842 842 842
805 809 812 813 815 817 819 822 824 827 827 828 830 832 834 835 835 836 837 838 838 839 840 841 841 841 841 841 841 841 841 840 840
801 805 809 811 812 815 817 819 821 823 826 826 827 829 831 832 833 833 835 836 837 838 838 839 840 840 840 840 839 838 839 839 838
795 799 803 806 807 811 815 818 819 820 822 824 824 826 827 829 830 831 832 833 834 835 836 836 837 837 838 838 837 837 836 837 837
794 794 799 800 803 806 812 814 816 817 818 820 821 822 824 825 826 828 828 830 831 832 833 834 834 834 835 835 835 835 835 835 836
791 789 792 795 797 803 806 812 814 815 814 816 817 818 819 821 822 823 824 825 826 828 830 830 830 830 830 832 831 831 831 833 833
784 786 786 785 791 798 803 807 812 813 812 814 814 814 814 816 817 819 821 821 822 823 825 826 827 827 827 828 829 829 829 831 832
776 781 783 781 785 792 798 804 807 809 809 812 811 810 810 810 811 814 815 815 817 820 821 823 824 824 824 825 827 827 827 829 829
766 771 775 779 783 786 791 798 802 804 806 807 810 809 808 804 805 808 809 810 812 815 818 818 819 820 821 824 826 826 826 826 826
758 761 765 772 775 775 784 791 795 798 800 803 803 807 804 800 799 802 804 805 808 810 814 815 815 816 818 819 823 824 824 825 824
752 756 758 767 771 775 779 783 788 793 795 799 798 797 797 798 798 799 799 801 803 807 809 811 813 814 816 817 819 819 822 821 822
747 750 753 760 767 771 774 776 783 785 789 789 790 793 794 795 795 797 797 799 799 802 805 807 810 812 813 815 817 816 819 819 819